Regional Weather Roundup
Issued by NWS

Home | Current Version | Previous Version | Text Only | Print | Product List | Glossary Off
Versions: 1 2 3 4 5 6 7 8 9 10 11 12 13 14 15 16 17 18 19 20 21 22 23 24 25 26 27 28 29 30 31 32 33 34 35 36 37 38 39 40 41 42 43 44 45 46 47 48 49 50

306
ASUS43 KIND 281459
RWRIN

WEATHER ROUNDUP FOR INDIANA
NATIONAL WEATHER SERVICE INDIANAPOLIS IN
1100 AM EDT THU APR 28 2016

NOTE: "FAIR" INDICATES FEW OR NO CLOUDS BELOW 12,000 FEET WITH NO
SIGNIFICANT WEATHER AND/OR OBSTRUCTIONS TO VISIBILITY.

* - STATION DOES NOT REPORT WEATHER SUCH AS PRECIPITATION OR FOG.

+ - STATION NOT QUALITY CONTROLLED BY THE NATIONAL WEATHER SERVICE.
    USE DATA WITH CAUTION...ESPECIALLY DEWPOINT AND RELATIVE
    HUMIDITY OBSERVATIONS.

INZ001>003-010>013-019-020-281600-
NORTHWEST INDIANA

CITY           SKY/WX    TMP DP  RH WIND       PRES   REMARKS
GARY /AIRPORT/ CLOUDY    50  50 100 SE7       29.86
RENSSELAER +   CLOUDY    50  46  87 E9        29.85R

$$

LMZ046-743>745-281600-
SOUTHERN LAKE MICHIGAN

STATION/POSITION TIME  TEMP    WIND        PRES    WAVE
                       AIR SEA DIR/SP/G            HT
                 (UTC) (F)     (DEG/KT/KT) (MB)    (FT)
BURNS HARBOR     1407   47     110/  7/ 20 1011.2R
MICHIGAN CITY    1400   45     110/  9/ 12   N/A

$$

INZ004-005-014>016-021>024-281600-
NORTH CENTRAL INDIANA

CITY           SKY/WX    TMP DP  RH WIND       PRES   REMARKS
GOSHEN         CLOUDY    47  41  80 E13       29.89R
SOUTH BEND     CLOUDY    46  40  79 SE16      29.89S

$$

INZ006>009-017-018-025>027-281600-
NORTHEAST INDIANA

CITY           SKY/WX    TMP DP  RH WIND       PRES   REMARKS
ANGOLA *+      CLOUDY    43  39  87 E21       29.89R
FORT WAYNE     CLOUDY    46  43  89 E15G24    29.88R

$$

INZ028-029-035-036-043>045-051>053-281600-
WEST CENTRAL INDIANA

CITY           SKY/WX    TMP DP  RH WIND       PRES   REMARKS
CRAWFORDSVL +  PTSUNNY   59  58  97 SE6       29.81S
GREENCASTLE +  PTSUNNY   64  61  88 S5        29.81S
LAFAYETTE      CLOUDY    52  49  89 SE7       29.82S FOG
TERRE HAUTE    PTSUNNY   67  61  81 S9        29.79F

$$

INZ030>032-037>040-046>048-054>057-064-065-281600-
CENTRAL INDIANA

CITY           SKY/WX    TMP DP  RH WIND       PRES   REMARKS
ANDERSON       CLOUDY    55  54  94 E7        29.84R
CP ATTERBURY + SUNNY     64  59  82 SE3       29.81S
COLUMBUS       MOSUNNY   63  63 100 S6        29.81S
INDIANAPOLIS   PTSUNNY   60  56  86 CALM      29.80R
-EAGLE CREEK   CLOUDY    58  55  90 SE8       29.80S
KOKOMO *+      CLOUDY    52  45  76 E10G16    29.84R
SHELBYVILLE    MOSUNNY   65  57  75 S8        29.80S

$$

INZ033-034-041-042-049-050-058-059-281600-
EAST CENTRAL INDIANA

CITY           SKY/WX    TMP DP  RH WIND       PRES   REMARKS
MUNCIE         CLOUDY    54  49  83 E10       29.83R

$$

INZ060-061-067>069-081>083-085>088-281600-
SOUTHWEST INDIANA

CITY           SKY/WX    TMP DP  RH WIND       PRES   REMARKS
EVANSVILLE     SUNNY     69  59  70 SW6       29.84R
HUNTINGBURG *+ CLOUDY    68  61  77 SW10      29.84R

$$

INZ062-063-066-070>080-084-089>092-281600-
SOUTH CENTRAL AND SOUTHEAST INDIANA

CITY           SKY/WX    TMP DP  RH WIND       PRES   REMARKS
BLOOMINGTON    CLOUDY    66  60  81 S7        29.81R
MADISON *+     CLOUDY    64  61  88 CALM      29.85R
SEYMOUR +      CLOUDY    66  63  88 NE3       29.82R

$$





USA.gov is the U.S. government's official web portal to all federal, state and local government web resources and services.